Torna al catalogo

DSN-2

AttivoMilitareGEO
NORAD 41940·PAYLOAD·🇯🇵 Japan

Lanciato Jan 24, 2017 da Tanegashima Space Center

Loading…

TLE

AggiornatoSource: Mike McCants

Epoca: Sep 15, 2026, 10:42 UTC

1 41940U 17005A   26258.44588886  .00000000  00000-0  00000-0 0    08
2 41940   0.0250 247.8967 0003453 131.2919 228.7549  1.00270000 21911

Traccia DSN-2 in tempo reale con AllMySat

Download on the App Store